Location: Newark
(42.9260°N, 89.3850°W)
Time: 00:37:03
(UTC+00:00)

STARLINK 1067 - Pass Details

Date: 11 December 2019
Orbit: 549 x 550 km, 53.0° (Epoch: 27 January)

Event Time Altitude Azimuth Distance (km) Brightness Sun altitude
Exits shadow 11:09:53 84° 19° (NNE) 541 3.4 -22.7°
Maximum altitude 11:09:55 85° 35° (NE) 541 3.4 -22.7°
Drops below altitude 10° 11:13:58 10° 125° (SE) 1,780 7.1 -21.9°
Sets 11:16:10 0° 126° (SE) 2,668 8.3 -21.5°
